sat.trackr.live / text

‹ back to catalog

CENTISPACE-2 S3

NORAD 68352 · 2026-060C

PAYLOAD ACTIVE UNKNOWN

§ Identity

Operator
Country
PRC
Launch date
2026-03-22
Launch site
YSLA
Launch vehicle
Mass (kg)
RCS (m²)

External: N2YO · Heavens-Above · Gunter

§ Orbital elements

Epoch: 2026-09-17T21:06:31.862016Z

Period
101.14 min
Inclination
54.9782°
Eccentricity
0.0009330
Mean motion
14.23806283 rev/d
Perigee alt
805.8 km
Apogee alt
819.2 km
Semi-major
7,190.6 km
B*
-3.0729e-6
RAAN
35.8030°
Arg perigee
277.3203°
Mean anomaly
82.6713°
Rev number
2,616

§ Raw data

CENTISPACE-2 S31 68352U 26060C   26260.87953544 -.00000164  00000+0 -30729-5 0  99972 68352  54.9782  35.8030 0009330 277.3203  82.6713 14.23806283 26168

JSON: /api/v1/satellites/68352 · /tle

For live sub-satellite position, see the globe view (requires WebGL).

§ Visibility from observer

Set your observer location to see the next 7 days of passes ≥ 10°. The values pass through the URL so the page stays shareable.

No JS? Fill the form by hand. The geolocation button needs JavaScript.